[Date Prev][Date Next][Thread Prev][Thread Next] - [Date Index][Thread Index][Author Index]

2 Line ISS Keps 2-23



ISS
1 25544U 98067A   03054.52334925  .00016191  00000-0  21200-3 0  7203
2 25544  51.6341 231.1189 0011921 237.3058 219.8929 15.58685633243277


----
Via the sarex mailing list at AMSAT.ORG courtesy of AMSAT-NA.
To unsubscribe, send "unsubscribe sarex" to Majordomo@amsat.org



AMSAT Top AMSAT Home